Date,TemperatureHighF,TemperatureAvgF,TemperatureLowF,DewpointHighF,DewpointAvgF,DewpointLowF,HumidityHigh,HumidityAvg,HumidityLow,PressureMaxIn,PressureMinIn,WindSpeedMaxMPH,WindSpeedAvgMPH,GustSpeedMaxMPH,PrecipitationSumIn
2012-1-23,33,32,32,32,32,32,99,99,99,30.30,30.24,3,0,5,0.11
2012-2-25,45,39,33,26,20,16,52,48,45,30.16,29.93,12,4,26,0.71
2012-3-23,75,68,61,36,33,27,34,30,25,30.61,30.54,6,2,11,0.00
2012-3-28,52,50,46,44,44,43,89,80,72,30.14,30.12,4,0,7,0.05
2012-4-17,86,76,62,44,33,19,36,25,15,30.67,30.56,9,3,18,0.06
2012-4-18,70,62,54,40,33,28,59,38,26,30.74,30.67,7,1,9,0.02
2012-4-19,75,52,38,53,40,28,99,73,21,30.69,30.50,6,1,11,0.00
2012-4-20,80,60,42,55,46,38,98,66,27,30.57,30.44,8,1,17,0.00
2012-4-21,71,61,56,61,54,48,91,79,68,30.45,30.36,5,1,10,0.00
2012-4-22,51,51,50,51,50,50,99,99,99,30.37,30.36,4,1,9,0.15
2012-5-13,88,80,64,59,52,46,72,42,28,30.71,30.59,7,1,12,0.00
2012-5-14,73,63,58,65,58,55,99,83,65,30.75,30.65,5,0,8,0.34
2012-5-29,76,68,65,74,68,65,99,99,92,30.37,30.27,8,1,15,0.21
2012-5-30,82,71,65,74,68,65,99,91,69,30.32,30.25,4,0,6,0.01
2012-6-5,67,55,47,57,52,47,99,90,66,30.51,30.44,4,0,8,0.04
2012-6-6,73,57,45,63,54,45,99,90,58,30.57,30.49,5,0,9,0.07
2012-6-7,77,59,46,67,56,46,99,90,56,30.56,30.46,8,0,14,0.41
2012-6-8,86,64,46,70,58,45,99,85,44,30.52,30.32,5,0,11,0.04
2012-6-9,83,68,55,68,59,49,99,78,38,30.52,30.37,6,1,12,0.30
2012-6-10,89,70,53,66,57,51,99,71,36,30.70,30.51,6,1,12,0.00
2012-6-11,81,68,55,62,58,55,99,72,49,30.80,30.77,5,1,11,0.00
2012-6-12,82,66,55,67,61,55,99,85,59,30.79,30.59,7,1,14,0.00
2012-6-13,69,69,69,69,69,69,99,99,99,30.57,30.56,1,0,3,0.00
2012-6-19,81,71,65,71,67,64,99,89,70,30.67,30.59,4,0,8,0.00
2012-6-20,100,82,64,85,76,63,99,83,55,30.60,30.43,4,1,9,0.00
2012-6-21,99,84,70,83,76,70,99,80,48,30.45,30.30,5,1,11,0.00
2012-6-22,99,84,68,78,74,68,99,77,50,30.35,30.26,5,1,10,0.02
2012-7-3,92,87,80,70,62,56,64,46,38,30.48,30.42,7,2,14,0.00
2012-7-8,83,72,68,71,67,59,99,85,68,30.46,30.35,4,0,7,0.00
2012-7-9,88,70,54,67,58,52,99,70,38,30.56,30.45,7,1,13,0.00
2012-7-10,89,70,51,68,57,50,99,72,35,30.66,30.55,5,0,8,0.00
2012-7-11,58,57,56,58,57,56,99,99,99,30.66,30.64,0,0,1,0.00
2012-7-12,98,81,66,74,68,64,99,69,42,30.73,30.65,5,0,9,0.00
2012-7-13,93,78,61,78,71,61,99,82,59,30.76,30.68,5,1,11,0.00
2012-7-14,96,80,68,79,72,68,99,80,55,30.73,30.63,4,1,10,0.00
2012-7-15,92,90,89,78,77,76,69,66,62,30.57,30.53,3,1,6,0.00
2012-7-20,77,66,55,64,61,54,99,86,64,30.65,30.60,4,0,8,0.00
2012-7-21,84,61,49,69,55,49,99,87,45,30.68,30.64,7,0,11,0.00
2012-7-24,89,78,68,76,65,56,87,66,52,30.29,30.11,8,2,17,0.14
2012-7-25,89,73,62,63,59,55,91,65,40,30.40,30.28,11,2,15,0.00
2012-7-26,90,73,62,78,69,59,99,89,60,30.35,30.14,6,0,12,0.01
2012-7-27,77,72,66,77,72,66,99,99,99,30.48,30.17,5,0,10,0.09
2012-7-28,88,71,63,79,68,62,99,93,61,30.55,30.47,8,1,14,0.38
2012-7-29,75,68,66,73,68,66,99,98,88,30.59,30.51,5,0,8,0.02
2012-8-3,81,77,73,79,76,73,99,96,78,30.66,30.57,2,0,4,0.00
2012-8-4,98,80,66,84,75,66,99,86,56,30.79,30.66,8,1,14,0.00
2012-8-5,94,74,67,82,73,67,99,96,68,30.79,30.56,6,0,14,0.09
2012-8-13,91,88,84,74,71,69,66,58,51,30.50,30.47,4,2,9,0.01
2012-8-16,87,84,80,75,73,69,81,70,60,30.42,30.39,7,2,11,0.64
2012-8-17,90,74,68,76,72,68,99,92,65,30.41,30.32,4,0,10,0.35
2012-8-18,74,67,63,74,66,63,99,98,86,30.47,30.39,3,0,6,0.01
2012-8-20,83,66,62,68,64,61,99,94,55,30.48,30.40,2,0,2,0.00
2012-8-21,87,71,58,71,63,58,99,81,43,30.66,30.46,5,0,9,0.00
2012-8-22,90,69,53,70,61,53,99,81,41,30.73,30.65,4,0,8,1.16
2012-8-23,93,74,57,74,66,57,99,82,49,30.72,30.64,4,0,8,0.00
2012-8-24,90,74,61,78,68,61,99,84,55,30.78,30.68,4,0,9,0.06
2012-8-25,89,71,58,79,67,58,99,88,53,30.90,30.78,6,0,9,0.00
2012-8-26,89,66,54,79,62,54,99,90,52,30.92,30.83,5,0,8,0.02
2012-8-27,78,74,73,75,73,72,99,98,87,30.56,30.51,3,0,8,0.00
2012-8-28,89,77,66,80,73,62,99,89,61,30.49,30.28,6,1,12,0.24
2012-8-29,74,64,56,64,57,49,99,83,46,30.56,30.45,8,1,13,0.00
2012-8-30,79,60,50,64,55,50,99,87,52,30.62,30.55,3,0,9,0.00
2012-9-3,86,70,63,69,64,62,99,85,52,30.74,30.69,4,0,7,0.01
2012-9-4,72,67,62,72,66,61,99,99,98,30.73,30.49,4,0,7,0.89
2012-9-18,74,72,70,74,72,69,99,99,99,30.32,30.23,11,4,23,0.51
2012-9-19,69,64,58,69,64,58,99,99,99,30.45,30.25,6,1,17,0.08
2012-9-22,81,70,62,69,65,62,99,88,68,30.50,30.38,5,1,10,0.01
2012-9-23,74,67,62,64,58,48,99,76,46,30.56,30.36,6,2,13,0.14
2012-9-24,56,48,43,49,46,40,99,94,77,30.68,30.63,0,0,2,0.00
2012-9-25,77,55,37,57,48,37,99,82,45,30.73,30.66,6,1,14,0.00
2012-9-26,76,65,56,69,63,56,99,93,76,30.70,30.58,6,1,12,0.00
2012-9-28,55,55,54,55,54,54,99,99,99,30.59,30.56,4,1,7,0.73
2012-9-29,59,54,52,59,54,51,99,99,99,30.56,30.45,5,1,10,0.05
2012-9-30,63,54,47,62,53,47,99,99,96,30.49,30.28,3,0,7,0.02
2012-10-1,64,50,45,58,49,19,99,98,81,30.53,30.27,4,0,10,0.01
2012-10-2,77,60,43,69,58,35,99,96,72,30.63,30.50,3,0,5,1.59
2012-10-13,58,45,35,38,32,24,95,64,32,30.98,30.87,5,0,10,0.00
2012-10-14,64,50,42,63,49,36,99,96,72,30.88,30.49,4,0,9,0.09
2012-10-15,78,66,57,69,63,57,99,92,71,30.50,30.17,9,1,18,0.09
2012-10-16,60,51,35,59,44,35,99,79,51,30.45,30.14,11,2,19,0.04
2012-10-17,69,45,30,48,38,29,99,82,38,30.57,30.45,4,0,8,0.00
2012-10-18,71,50,33,53,44,33,99,83,45,30.69,30.56,6,0,11,0.00
2012-10-19,68,58,46,68,58,45,99,99,89,30.66,30.29,8,1,11,0.31
2012-10-20,79,67,62,73,65,48,99,94,53,30.32,30.18,6,1,12,0.08
2012-10-21,66,53,42,57,46,42,99,82,49,30.45,30.32,8,1,15,0.00
2012-10-22,54,52,51,48,48,47,86,83,79,30.46,30.45,3,0,8,0.00
2012-11-10,61,42,30,40,32,29,99,73,41,31.02,30.82,7,0,11,0.11
2012-11-11,65,49,31,50,44,31,99,85,56,31.05,30.96,6,0,13,0.00
2012-11-12,70,59,42,63,55,41,99,87,62,31.02,30.78,8,2,18,0.00
2012-11-13,64,63,62,64,63,62,99,99,99,30.78,30.73,4,1,10,0.11
2012-11-25,33,31,28,25,24,22,81,75,70,30.41,30.37,3,0,6,0.00
2012-11-26,33,31,29,26,25,23,82,77,74,30.49,30.41,2,0,4,0.00
2012-12-12,33,26,23,26,24,22,99,91,67,30.98,30.91,1,0,2,0.00
2012-12-13,24,23,22,23,23,22,99,99,99,30.98,30.96,1,0,2,0.00
2012-12-14,28,26,25,27,25,24,99,97,91,30.72,30.70,1,0,2,0.00
2012-12-15,51,36,25,35,27,18,99,76,37,30.86,30.71,5,1,10,0.00
2012-12-16,28,27,26,27,26,25,99,99,99,30.71,30.62,2,0,3,0.01
2012-12-17,31,28,26,31,28,26,99,99,99,30.63,30.48,0,0,0,0.00
2012-12-20,38,37,37,30,30,30,77,75,74,30.68,30.68,0,0,2,0.00
2012-12-21,45,39,36,40,37,35,99,94,81,29.78,29.70,7,1,11,0.44
2012-12-22,40,35,31,35,31,24,99,87,58,29.93,29.76,8,1,15,0.00
2012-12-24,46,42,37,23,20,17,49,43,38,30.60,30.56,8,2,11,0.00